When you browse on this site, cookies collect data to enhance your experience and personalize the content and advertising you see.
Visit our Privacy Policy to learn more. By continuing to use the site, you agree to this use of cookies and data.
  • In Austria
  • List of Countries
  • For 7 days
  • Water Temperature
  • Satellite Maps
  • Weather Map
  • News
  • Weather Widgets
  • user-avatar
    Login

    Hourly Weather Manaus

    Today, 12 December, Wednesday

    Time Temperature Precipitation Wind Pressure Humidity
    00:00 +26°C° 0.7 mm 1 mps 756 mmHg 95%
    01:00 +26°C° 0.7 mm 1 mps 755 mmHg 95%
    02:00 +25°C° 0 mm 1 mps 755 mmHg 96%
    03:00 +25°C° 0.7 mm 1 mps 755 mmHg 96%
    04:00 +25°C° 0.7 mm 1 mps 755 mmHg 96%
    05:00 +25°C° 0.7 mm 1 mps 755 mmHg 97%
    06:00 +26°C° 0.7 mm 1 mps 755 mmHg 94%
    07:00 +27°C° 0.7 mm 1 mps 756 mmHg 92%
    08:00 +28°C° 0 mm 1 mps 756 mmHg 89%
    09:00 +29°C° 1.6 mm 2 mps 756 mmHg 85%
    10:00 +30°C° 1.6 mm 2 mps 756 mmHg 81%
    11:00 +31°C° 1.6 mm 2 mps 756 mmHg 77%
    12:00 +31°C° 2.4 mm 2 mps 755 mmHg 79%
    13:00 +31°C° 2.4 mm 2 mps 755 mmHg 81%
    14:00 +31°C° 2.4 mm 1 mps 754 mmHg 82%
    15:00 +31°C° 0.6 mm 1 mps 754 mmHg 83%
    16:00 +30°C° 0.6 mm 1 mps 753 mmHg 83%
    17:00 +30°C° 0.6 mm 1 mps 753 mmHg 83%
    18:00 +27°C° 0.1 mm 0 mps 753 mmHg 86%
    19:00 +26°C° 0.1 mm 0 mps 754 mmHg 88%
    20:00 +25°C° 0.1 mm 0 mps 754 mmHg 91%
    21:00 +25°C° 0 mm 0 mps 754 mmHg 91%
    22:00 +24°C° 0 mm 0 mps 755 mmHg 92%
    23:00 +24°C° 0 mm 0 mps 755 mmHg 93%

    Tomorrow, 13 December, Thursday

    Time Temperature Precipitation Wind Pressure Humidity
    00:00 +24°C° 0.7 mm 0 mps 755 mmHg 94%
    01:00 +24°C° 0.7 mm 0 mps 755 mmHg 95%
    02:00 +24°C° 0.7 mm 0 mps 754 mmHg 96%
    03:00 +23°C° 2.4 mm 0 mps 754 mmHg 96%
    04:00 +25°C° 2.4 mm 1 mps 754 mmHg 96%
    05:00 +25°C° 2.4 mm 1 mps 754 mmHg 97%
    06:00 +26°C° 1 mm 1 mps 755 mmHg 96%
    07:00 +26°C° 1 mm 1 mps 756 mmHg 95%
    08:00 +27°C° 1 mm 1 mps 756 mmHg 95%
    09:00 +27°C° 1.4 mm 2 mps 756 mmHg 93%
    10:00 +28°C° 1.4 mm 2 mps 756 mmHg 92%
    11:00 +28°C° 1.4 mm 2 mps 756 mmHg 91%
    12:00 +29°C° 1 mm 2 mps 755 mmHg 87%
    13:00 +29°C° 1 mm 2 mps 755 mmHg 83%
    14:00 +30°C° 1 mm 2 mps 754 mmHg 79%
    15:00 +30°C° 0.7 mm 2 mps 754 mmHg 79%
    16:00 +29°C° 0.7 mm 2 mps 753 mmHg 79%
    17:00 +29°C° 0.7 mm 1 mps 753 mmHg 80%
    18:00 +28°C° 0.3 mm 1 mps 753 mmHg 83%
    19:00 +27°C° 0.3 mm 1 mps 754 mmHg 87%
    20:00 +24°C° 0.3 mm 0 mps 754 mmHg 90%
    21:00 +24°C° 0.1 mm 0 mps 755 mmHg 91%
    22:00 +24°C° 0.1 mm 0 mps 755 mmHg 92%
    23:00 +24°C° 0.1 mm 0 mps 755 mmHg 93%

    Day after tomorrow, 14 December, Friday

    Time Temperature Precipitation Wind Pressure Humidity
    00:00 +24°C° 0.4 mm 0 mps 755 mmHg 94%
    01:00 +24°C° 0.4 mm 0 mps 754 mmHg 95%
    02:00 +23°C° 0.4 mm 0 mps 754 mmHg 96%
    03:00 +23°C° 1.2 mm 0 mps 754 mmHg 96%
    04:00 +25°C° 1.2 mm 1 mps 754 mmHg 97%
    05:00 +25°C° 1.2 mm 1 mps 754 mmHg 97%
    06:00 +26°C° 1.2 mm 1 mps 755 mmHg 96%
    07:00 +26°C° 1.2 mm 1 mps 755 mmHg 95%
    08:00 +26°C° 1.2 mm 1 mps 756 mmHg 94%
    09:00 +27°C° 1 mm 1 mps 756 mmHg 92%
    10:00 +28°C° 1 mm 1 mps 756 mmHg 91%
    11:00 +28°C° 1 mm 1 mps 757 mmHg 89%
    12:00 +28°C° 1.8 mm 1 mps 756 mmHg 90%
    13:00 +28°C° 1.8 mm 1 mps 755 mmHg 91%
    14:00 +28°C° 1.8 mm 1 mps 755 mmHg 93%
    15:00 +27°C° 1.6 mm 1 mps 754 mmHg 93%
    16:00 +27°C° 1.6 mm 1 mps 754 mmHg 94%
    17:00 +27°C° 1.6 mm 1 mps 754 mmHg 95%
    18:00 +26°C° 0.6 mm 1 mps 754 mmHg 96%
    19:00 +26°C° 0.6 mm 1 mps 755 mmHg 96%
    20:00 +25°C° 0.6 mm 1 mps 755 mmHg 97%
    21:00 +25°C° 0.6 mm 1 mps 756 mmHg 97%
    22:00 +25°C° 0.6 mm 1 mps 756 mmHg 97%
    23:00 +25°C° 0.6 mm 1 mps 757 mmHg 98%

    15 December, Saturday

    Time Temperature Precipitation Wind Pressure Humidity
    00:00 +25°C° 0.2 mm 1 mps 756 mmHg 98%
    01:00 +24°C° 0.2 mm 1 mps 756 mmHg 98%
    02:00 +24°C° 0.2 mm 1 mps 755 mmHg 98%
    03:00 +24°C° 0 mm 1 mps 755 mmHg 98%
    04:00 +24°C° 0 mm 1 mps 755 mmHg 98%
    05:00 +24°C° 0 mm 1 mps 755 mmHg 98%
    06:00 +25°C° 0 mm 1 mps 756 mmHg 95%
    07:00 +26°C° 0 mm 1 mps 757 mmHg 92%
    08:00 +27°C° 0 mm 2 mps 757 mmHg 90%
    09:00 +28°C° 0.4 mm 2 mps 757 mmHg 80%
    10:00 +30°C° 0.4 mm 2 mps 757 mmHg 70%
    11:00 +32°C° 0.4 mm 2 mps 757 mmHg 60%
    12:00 +32°C° 1 mm 2 mps 756 mmHg 67%
    13:00 +31°C° 1 mm 2 mps 755 mmHg 74%
    14:00 +31°C° 1 mm 1 mps 754 mmHg 81%
    15:00 +30°C° 1.1 mm 1 mps 754 mmHg 84%
    16:00 +30°C° 1.1 mm 1 mps 754 mmHg 86%
    17:00 +29°C° 1.1 mm 1 mps 753 mmHg 88%
    18:00 +28°C° 1.5 mm 1 mps 754 mmHg 90%
    19:00 +27°C° 1.5 mm 1 mps 755 mmHg 93%
    20:00 +26°C° 1.5 mm 1 mps 755 mmHg 95%
    21:00 +26°C° 0.4 mm 1 mps 756 mmHg 95%
    22:00 +25°C° 0.4 mm 1 mps 756 mmHg 95%
    23:00 +25°C° 0.4 mm 1 mps 757 mmHg 96%

    16 December, Sunday

    Time Temperature Precipitation Wind Pressure Humidity
    00:00 +25°C° 0.5 mm 1 mps 756 mmHg 96%
    01:00 +25°C° 0.5 mm 1 mps 755 mmHg 96%
    02:00 +25°C° 0.5 mm 1 mps 755 mmHg 96%
    03:00 +25°C° 0.6 mm 1 mps 755 mmHg 97%
    04:00 +25°C° 0.6 mm 1 mps 755 mmHg 97%
    05:00 +25°C° 0.6 mm 1 mps 755 mmHg 97%
    06:00 +25°C° 0.3 mm 1 mps 756 mmHg 97%
    07:00 +25°C° 0.3 mm 1 mps 757 mmHg 96%
    08:00 +26°C° 0.3 mm 2 mps 757 mmHg 96%
    09:00 +26°C° 1 mm 2 mps 757 mmHg 96%
    10:00 +25°C° 1 mm 2 mps 757 mmHg 96%
    11:00 +25°C° 1 mm 2 mps 757 mmHg 96%
    12:00 +27°C° 0.3 mm 2 mps 756 mmHg 88%
    13:00 +29°C° 0.3 mm 2 mps 755 mmHg 80%
    14:00 +30°C° 0.3 mm 2 mps 754 mmHg 73%
    15:00 +30°C° 0.5 mm 2 mps 754 mmHg 77%
    16:00 +29°C° 0.5 mm 1 mps 754 mmHg 81%
    17:00 +29°C° 0.5 mm 1 mps 753 mmHg 86%
    18:00 +28°C° 0.5 mm 1 mps 754 mmHg 89%
    19:00 +27°C° 0.5 mm 1 mps 754 mmHg 92%
    20:00 +26°C° 0.5 mm 1 mps 755 mmHg 96%
    21:00 +25°C° 0.3 mm 1 mps 755 mmHg 96%
    22:00 +25°C° 0.3 mm 1 mps 755 mmHg 96%
    23:00 +25°C° 0.3 mm 1 mps 755 mmHg 96%

    17 December, Monday

    Time Temperature Precipitation Wind Pressure Humidity
    00:00 +25°C° 0.2 mm 1 mps 755 mmHg 96%
    01:00 +25°C° 0.2 mm 1 mps 755 mmHg 97%
    02:00 +24°C° 0.2 mm 1 mps 754 mmHg 97%
    03:00 +24°C° 0.2 mm 1 mps 754 mmHg 97%
    04:00 +24°C° 0.2 mm 1 mps 755 mmHg 96%
    05:00 +24°C° 0.2 mm 1 mps 755 mmHg 96%
    06:00 +25°C° 0.1 mm 1 mps 755 mmHg 94%
    07:00 +26°C° 0.1 mm 1 mps 756 mmHg 91%
    08:00 +27°C° 0.1 mm 1 mps 756 mmHg 88%
    09:00 +28°C° 1.3 mm 2 mps 756 mmHg 87%
    10:00 +29°C° 1.3 mm 2 mps 756 mmHg 86%
    11:00 +30°C° 1.3 mm 2 mps 756 mmHg 85%
    12:00 +30°C° 1.4 mm 2 mps 755 mmHg 83%
    13:00 +30°C° 1.4 mm 2 mps 754 mmHg 81%
    14:00 +30°C° 1.4 mm 2 mps 753 mmHg 79%
    15:00 +30°C° 0.3 mm 2 mps 753 mmHg 77%
    16:00 +30°C° 0.3 mm 2 mps 753 mmHg 75%
    17:00 +30°C° 0.3 mm 1 mps 752 mmHg 73%
    18:00 +29°C° 0.1 mm 1 mps 753 mmHg 77%
    19:00 +28°C° 0.1 mm 1 mps 754 mmHg 82%
    20:00 +26°C° 0.1 mm 1 mps 754 mmHg 86%
    21:00 +26°C° 1.6 mm 1 mps 755 mmHg 89%
    22:00 +26°C° 1.6 mm 1 mps 755 mmHg 92%
    23:00 +23°C° 1.6 mm 0 mps 755 mmHg 95%
    Show more